EW1033 Weather Reports


Display with metric or nautical units.
time (UTC)temp
F
wind
direction
speed
MPH
gust
MPH
rain 1hr
in
rain 24hr
in
rain mn
in
humidity
%
barometer
mb
20260906081502 80 0.0 0.0 0.00 0.00 0.00 52 1007.0
20260906080103 80 0.0 0.0 0.00 0.00 0.00 52 1007.0
20260906074558 80 0.0 0.0 0.00 0.00 0.00 52 1007.3
20260906073055 80 0.0 0.0 0.00 0.00 0.00 51 1007.3
20260906071559 81 0.0 0.0 0.00 0.00 0.00 50 1007.3
20260906070057 81 0.0 0.0 0.00 0.00 0.00 51 1007.4
20260906064553 81 0.0 0.0 0.00 0.00 0.00 50 1007.4
20260906063050 81 0.0 0.0 0.00 0.00 0.00 49 1007.3
20260906061549 81 0.0 0.0 0.00 0.00 0.00 51 1007.4
20260906060049 81 0.0 0.0 0.00 0.00 0.00 52 1007.5
20260906054600 82 0.0 0.0 0.00 0.00 0.00 49 1007.5
20260906053054 82 0.0 0.0 0.00 0.00 0.00 48 1007.5
20260906051605 83 0.0 0.0 0.00 0.00 0.00 47 1007.5
20260906050047 84 0.0 0.0 0.00 0.00 0.00 46 1007.6
20260906044551 84 0.0 0.0 0.00 0.00 0.00 45 1007.4
20260906043046 84 0.0 0.0 0.00 0.00 0.00 45 1007.5
20260906041543 85 0.0 0.0 0.00 0.00 0.00 44 1007.5
20260906040122 86 0.0 0.0 0.00 0.00 0.00 43 1007.3
20260906034546 87 0.0 0.0 0.00 0.00 0.00 42 1007.2
20260906033055 87 0.0 0.0 0.00 0.00 0.00 41 1007.0
20260906031542 88 0.0 0.0 0.00 0.00 0.00 40 1006.8
20260906030041 89 0.0 0.0 0.00 0.00 0.00 39 1006.7
20260906024541 90 0.0 0.0 0.00 0.00 0.00 38 1006.4
20260906023038 90 0.0 0.0 0.00 0.00 0.00 37 1006.3
20260906021539 91 0.0 0.0 0.00 0.00 0.00 36 1006.2
20260906020039 91 0.0 0.0 0.00 0.00 0.00 36 1006.1
20260906014538 92 0.0 0.0 0.00 0.00 0.00 36 1006.1
20260906013037 92 0.0 0.0 0.00 0.00 0.00 35 1006.0
20260906011537 93 0.0 0.0 0.00 0.00 0.00 35 1006.0
20260906010036 94 0.0 0.0 0.00 0.00 0.00 34 1006.0
20260906004534 95 0.0 0.0 0.00 0.00 0.00 33 1006.0
20260906003032 95 0.0 0.0 0.00 0.00 0.00 33 1006.1
20260906001534 96 0.0 0.0 0.00 0.00 0.00 32 1005.9
20260906000031 96 0.0 0.0 0.00 0.00 0.00 32 1006.0
20260905234530 97 0.0 0.0 0.00 0.00 0.00 31 1005.9
20260905233028 97 0.0 0.0 0.00 0.00 0.00 31 1005.9
20260905231527 97 0.0 0.0 0.00 0.00 0.00 31 1005.9
20260905230025 98 0.0 0.0 0.00 0.00 0.00 30 1006.0
20260905224600 98 0.0 0.0 0.00 0.00 0.00 30 1006.2
20260905223023 98 0.0 0.0 0.00 0.00 0.00 30 1006.2
20260905221520 99 0.0 0.0 0.00 0.00 0.00 30 1006.4
20260905220016 98 0.0 0.0 0.00 0.00 0.00 30 1006.5
20260905214514 98 0.0 0.0 0.00 0.00 0.00 30 1006.8
20260905213009 98 0.0 0.0 0.00 0.00 0.00 30 1006.9
20260905211521 98 0.0 0.0 0.00 0.00 0.00 29 1007.2
20260905210005 97 0.0 0.0 0.00 0.00 0.00 31 1007.5
20260905204504 97 0.0 0.0 0.00 0.00 0.00 31 1007.7
20260905203101 97 0.0 0.0 0.00 0.00 0.00 31 1008.0
20260905201557 98 0.0 0.0 0.00 0.00 0.00 32 1008.2
20260905200054 97 0.0 0.0 0.00 0.00 0.00 33 1008.4
20260905194552 96 0.0 0.0 0.00 0.00 0.00 34 1008.5
20260905193049 96 0.0 0.0 0.00 0.00 0.00 35 1008.7
20260905191546 95 0.0 0.0 0.00 0.00 0.00 35 1009.0
20260905190045 94 0.0 0.0 0.00 0.00 0.00 37 1009.2
20260905184554 94 0.0 0.0 0.00 0.00 0.00 36 1009.5
20260905183040 94 0.0 0.0 0.00 0.00 0.00 37 1009.8
20260905181539 93 0.0 0.0 0.00 0.00 0.00 38 1010.0
20260905180042 92 0.0 0.0 0.00 0.00 0.00 39 1010.0
20260905174537 91 0.0 0.0 0.00 0.00 0.00 39 1010.0
20260905173039 91 0.0 0.0 0.00 0.00 0.00 40 1010.1
20260905171530 90 0.0 0.0 0.00 0.00 0.00 43 1010.2
20260905170026 90 0.0 0.0 0.00 0.00 0.00 43 1010.4
20260905164527 89 0.0 0.0 0.00 0.00 0.00 44 1010.5
20260905163024 86 0.0 0.0 0.00 0.00 0.00 48 1010.4
20260905161518 86 0.0 0.0 0.00 0.00 0.00 49 1010.5
20260905160016 85 0.0 0.0 0.00 0.00 0.00 52 1010.5
20260905154512 84 0.0 0.0 0.00 0.00 0.00 55 1010.5
20260905153015 82 0.0 0.0 0.00 0.00 0.00 57 1010.5
20260905151515 81 0.0 0.0 0.00 0.00 0.00 58 1010.5
20260905150003 80 0.0 0.0 0.00 0.00 0.00 61 1010.5
20260905144509 79 0.0 0.0 0.00 0.00 0.00 61 1010.5
20260905143103 78 0.0 0.0 0.00 0.00 0.00 64 1010.4
20260905141555 77 0.0 0.0 0.00 0.00 0.00 68 1010.3
20260905140054 76 0.0 0.0 0.00 0.00 0.00 69 1010.2
20260905134554 74 0.0 0.0 0.00 0.00 0.00 72 1010.0
20260905133049 72 0.0 0.0 0.00 0.00 0.00 75 1009.7
20260905131544 72 0.0 0.0 0.00 0.00 0.00 75 1009.6
20260905130043 72 0.0 0.0 0.00 0.00 0.00 75 1009.3
20260905124541 72 0.0 0.0 0.00 0.00 0.00 74 1009.2
20260905123048 72 0.0 0.0 0.00 0.00 0.00 74 1009.0
20260905121547 73 0.0 0.0 0.00 0.00 0.00 74 1009.0
20260905120038 73 0.0 0.0 0.00 0.00 0.00 74 1009.0
20260905114537 73 0.0 0.0 0.00 0.00 0.00 74 1008.9
20260905113035 73 0.0 0.0 0.00 0.00 0.00 74 1008.8
20260905111535 73 0.0 0.0 0.00 0.00 0.00 74 1008.9
20260905110033 73 0.0 0.0 0.00 0.00 0.00 73 1008.9
20260905104532 74 0.0 0.0 0.00 0.00 0.00 73 1008.9
20260905103029 75 0.0 0.0 0.00 0.00 0.00 70 1008.8
20260905101531 75 0.0 0.0 0.00 0.00 0.00 69 1008.9
20260905100053 76 0.0 0.0 0.00 0.00 0.00 69 1009.0
20260905094523 76 0.0 0.0 0.00 0.00 0.00 68 1009.0
20260905093021 76 0.0 0.0 0.00 0.00 0.00 67 1009.0
20260905091517 77 0.0 0.0 0.00 0.00 0.00 65 1009.0
20260905090016 78 0.0 0.0 0.00 0.00 0.00 64 1009.0
20260905084514 78 0.0 0.0 0.00 0.00 0.00 64 1009.1
20260905083013 78 0.0 0.0 0.00 0.00 0.00 63 1009.1